Midland, MI

4:20 AM EST on February 21, 2017 (GMT -0500)
Barstow

Weather History for KIKW - July, 2013

Change the Weather History Date:

Saturday, July 20, 2013

  Actual Average (KMBS) Record (KMBS)
Temperature  
Mean Temperature 74 °F -  
Max Temperature 84 °F 80 °F 94 °F (1998)
Min Temperature 62 °F 57 °F 48 °F (2000)
Cooling Degree Days 8    
Growing Degree Days 24 (Base 50)    
Moisture  
Dew Point 63 °F    
Average Humidity 76    
Maximum Humidity 99    
Minimum Humidity 42    
Precipitation  
Precipitation 0.00 in - - ()
Sea Level Pressure  
Sea Level Pressure 29.85 in    
Wind  
Wind Speed 4 mph (WNW)    
Max Wind Speed 18 mph    
Max Gust Speed 25 mph    
Visibility 10 miles    
Events Rain    
Averages and records for this station are not official NWS values.
T = Trace of Precipitation, MM = Missing Value Source: NWS Daily Summary

Daily Weather History Graph

Daily Weather History Graph

Search for Another Location

Airport or City:

Trip Planner

Search our weather history database for the weather conditions in past years. The results will help you decide how hot, cold, wet, or windy it might be!

Date:

Astronomy

Jul. 20, 2013 Rise Set
Actual Time 6:14 AM EDT 9:12 PM EDT
Civil Twilight 5:40 AM EDT 9:46 PM EDT
Nautical Twilight 4:56 AM EDT 10:29 PM EDT
Astronomical Twilight 4:05 AM EDT 11:20 PM EDT
Moon 7:14 PM EDT (7/20) 3:53 AM EDT (7/20)
Length of Visible Light 16h 06m
Length of Day
14h 58m
Waxing Gibbous, 93% of the Moon is Illuminated
Jul 20
Waxing Gibbous
Jul 22
Full
Jul 29
Last Quarter
Aug 6
New
Aug 14
First Quarter

Hourly Weather History & Observations

Time (EDT) Temp. Heat Index Dew Point Humidity Pressure Visibility Wind Dir Wind Speed Gust Speed Precip Events Conditions
12:14 AM 70.7 °F - 68.0 °F 91% 29.74 in 10.0 mi NW 4.6 mph - N/A   Scattered Clouds
12:34 AM 70.0 °F - 68.2 °F 94% 29.75 in 10.0 mi NNW 4.6 mph - N/A   Scattered Clouds
12:53 AM 69.3 °F - 68.0 °F 96% 29.76 in 10.0 mi NNW 3.5 mph - N/A   Scattered Clouds
1:13 AM 69.1 °F - 68.2 °F 97% 29.76 in 10.0 mi NNW 3.5 mph - N/A   Mostly Cloudy
1:34 AM 70.2 °F - 68.5 °F 95% 29.76 in 10.0 mi Calm Calm - N/A   Overcast
1:53 AM 70.2 °F - 68.0 °F 93% 29.77 in 10.0 mi Calm Calm - N/A   Scattered Clouds
2:13 AM 69.3 °F - 67.3 °F 93% 29.78 in 10.0 mi Calm Calm - N/A   Clear
2:34 AM 68.9 °F - 66.6 °F 92% 29.78 in 10.0 mi Calm Calm - N/A   Scattered Clouds
2:53 AM 68.9 °F - 65.5 °F 89% 29.77 in 10.0 mi North 5.8 mph - N/A   Scattered Clouds
3:13 AM 69.4 °F - 65.1 °F 86% 29.78 in 10.0 mi North 3.5 mph - N/A   Mostly Cloudy
3:34 AM 69.3 °F - 64.8 °F 86% 29.79 in 10.0 mi NNW 3.5 mph - N/A   Overcast
3:53 AM 68.4 °F - 64.9 °F 89% 29.78 in 10.0 mi North 3.5 mph - N/A   Overcast
4:13 AM 68.2 °F - 66.2 °F 93% 29.78 in 10.0 mi Calm Calm - N/A   Overcast
4:34 AM 67.5 °F - 65.7 °F 94% 29.78 in 10.0 mi NNW 3.5 mph - N/A   Overcast
4:53 AM 67.1 °F - 65.5 °F 95% 29.78 in 10.0 mi NNW 3.5 mph - N/A   Overcast
5:13 AM 65.5 °F - 64.2 °F 96% 29.78 in 10.0 mi Calm Calm - N/A   Scattered Clouds
5:34 AM 64.9 °F - 64.2 °F 98% 29.79 in 10.0 mi Calm Calm - N/A   Scattered Clouds
5:53 AM 64.4 °F - 63.5 °F 97% 29.79 in 10.0 mi Calm Calm - N/A   Mostly Cloudy
6:13 AM 63.7 °F - 63.3 °F 99% 29.80 in 10.0 mi Calm Calm - N/A   Overcast
6:34 AM 64.4 °F - 63.7 °F 98% 29.80 in 10.0 mi Calm Calm - N/A   Overcast
6:53 AM 64.0 °F - 63.7 °F 99% 29.81 in 10.0 mi Calm Calm - N/A   Scattered Clouds
7:14 AM 65.1 °F - 64.8 °F 99% 29.82 in 10.0 mi Calm Calm - N/A   Scattered Clouds
7:33 AM 67.3 °F - 66.2 °F 96% 29.83 in 10.0 mi Calm Calm - N/A   Clear
7:53 AM 68.9 °F - 66.0 °F 90% 29.84 in 10.0 mi Calm Calm - N/A   Clear
8:14 AM 70.3 °F - 66.0 °F 86% 29.84 in 10.0 mi Calm Calm - N/A   Clear
8:33 AM 72.0 °F - 65.8 °F 81% 29.84 in 10.0 mi Calm Calm - N/A   Clear
8:53 AM 73.2 °F - 67.1 °F 81% 29.85 in 10.0 mi SW 3.5 mph - N/A   Clear
9:14 AM 73.9 °F - 67.5 °F 80% 29.85 in 10.0 mi WSW 4.6 mph - N/A   Clear
9:33 AM 75.4 °F - 65.8 °F 72% 29.86 in 10.0 mi SW 4.6 mph - N/A   Clear
9:54 AM 76.3 °F - 65.3 °F 69% 29.85 in 10.0 mi SSW 5.8 mph - N/A   Clear
10:14 AM 77.2 °F - 61.5 °F 58% 29.85 in 10.0 mi SW 4.6 mph - N/A   Clear
10:33 AM 78.8 °F - 60.3 °F 53% 29.85 in 10.0 mi WSW 5.8 mph - N/A   Clear
10:54 AM 79.7 °F - 61.2 °F 53% 29.85 in 10.0 mi WSW 4.6 mph - N/A   Clear
11:13 AM 79.9 °F - 59.2 °F 49% 29.85 in 10.0 mi West 9.2 mph - N/A   Clear
11:33 AM 80.6 °F 81.2 °F 60.1 °F 49% 29.86 in 10.0 mi WSW 8.1 mph - N/A   Clear
11:54 AM 80.6 °F 80.7 °F 57.0 °F 44% 29.86 in 10.0 mi NW 4.6 mph - N/A   Clear
12:13 PM 81.0 °F 81.2 °F 58.1 °F 46% 29.86 in 10.0 mi WNW 6.9 mph - N/A   Scattered Clouds
12:33 PM 82.6 °F 82.3 °F 58.1 °F 43% 29.86 in 10.0 mi WSW 8.1 mph - N/A   Clear
12:54 PM 82.6 °F 82.3 °F 57.9 °F 43% 29.85 in 10.0 mi West 5.8 mph 9.2 mph N/A   Clear
1:13 PM 82.0 °F 81.8 °F 57.7 °F 43% 29.85 in 10.0 mi WSW 8.1 mph - N/A   Scattered Clouds
1:33 PM 82.2 °F 82.0 °F 57.7 °F 43% 29.85 in 10.0 mi West 9.2 mph 18.4 mph N/A   Scattered Clouds
1:54 PM 82.6 °F 82.3 °F 57.7 °F 43% 29.85 in 10.0 mi West 11.5 mph - N/A   Mostly Cloudy
2:13 PM 84.4 °F 84.0 °F 59.0 °F 42% 29.85 in 10.0 mi WSW 12.7 mph 17.3 mph N/A   Mostly Cloudy
2:33 PM 76.8 °F - 62.2 °F 61% 29.87 in 10.0 mi NNW 18.4 mph 25.3 mph N/A   Overcast
2:54 PM 70.0 °F - 63.7 °F 80% 29.87 in 10.0 mi North 6.9 mph - N/A Rain Light Rain
3:13 PM 70.0 °F - 65.5 °F 86% 29.87 in 10.0 mi NNE 3.5 mph - N/A   Mostly Cloudy
3:33 PM 72.7 °F - 65.3 °F 78% 29.87 in 10.0 mi North 3.5 mph - N/A   Mostly Cloudy
3:54 PM 74.5 °F - 64.2 °F 70% 29.87 in 10.0 mi West 5.8 mph - N/A   Overcast
4:13 PM 74.1 °F - 63.5 °F 69% 29.87 in 10.0 mi SSW 8.1 mph - N/A   Overcast
4:34 PM 74.7 °F - 63.9 °F 69% 29.87 in 10.0 mi West 4.6 mph - N/A Rain Light Rain
4:54 PM 73.9 °F - 64.4 °F 72% 29.88 in 10.0 mi West 8.1 mph - N/A Rain Light Rain
5:13 PM 72.1 °F - 65.5 °F 79% 29.88 in 10.0 mi WSW 4.6 mph - N/A   Light Drizzle
5:34 PM 74.7 °F - 64.9 °F 72% 29.87 in 10.0 mi SW 6.9 mph - N/A   Mostly Cloudy
5:54 PM 77.2 °F - 64.0 °F 64% 29.87 in 10.0 mi WSW 5.8 mph - N/A   Scattered Clouds
6:13 PM 77.9 °F - 64.0 °F 62% 29.86 in 10.0 mi WSW 4.6 mph - N/A   Clear
6:34 PM 78.1 °F - 64.0 °F 62% 29.86 in 10.0 mi WSW 4.6 mph - N/A   Clear
6:53 PM 78.3 °F - 63.5 °F 60% 29.86 in 10.0 mi West 3.5 mph - N/A   Scattered Clouds
7:13 PM 77.9 °F - 63.9 °F 62% 29.87 in 10.0 mi West 4.6 mph - N/A   Scattered Clouds
7:34 PM 77.5 °F - 64.4 °F 64% 29.88 in 10.0 mi NW 3.5 mph - N/A   Scattered Clouds
7:53 PM 77.2 °F - 60.6 °F 56% 29.88 in 10.0 mi NNW 5.8 mph - N/A   Mostly Cloudy
8:13 PM 75.6 °F - 58.1 °F 55% 29.89 in 10.0 mi North 5.8 mph - N/A   Mostly Cloudy
8:34 PM 73.4 °F - 58.8 °F 60% 29.90 in 10.0 mi NE 5.8 mph - N/A   Scattered Clouds
8:53 PM 71.1 °F - 62.8 °F 75% 29.91 in 10.0 mi NE 3.5 mph - N/A   Clear
9:14 PM 70.0 °F - 63.0 °F 78% 29.92 in 10.0 mi NNE 3.5 mph - N/A   Clear
9:34 PM 68.4 °F - 62.1 °F 80% 29.92 in 10.0 mi North 3.5 mph - N/A   Clear
9:53 PM 67.6 °F - 61.7 °F 81% 29.93 in 10.0 mi North 4.6 mph - N/A   Clear
10:14 PM 67.1 °F - 60.8 °F 80% 29.94 in 10.0 mi Calm Calm - N/A   Clear
10:34 PM 65.7 °F - 60.6 °F 84% 29.95 in 10.0 mi North 4.6 mph - N/A   Clear
10:53 PM 64.8 °F - 60.4 °F 86% 29.95 in 10.0 mi Calm Calm - N/A   Clear
11:14 PM 63.5 °F - 61.2 °F 92% 29.97 in 10.0 mi NNW 4.6 mph - N/A   Clear
11:33 PM 63.5 °F - 61.2 °F 92% 29.97 in 10.0 mi Calm Calm - N/A   Clear
11:54 PM 62.1 °F - 60.8 °F 96% 29.97 in 10.0 mi Calm Calm - N/A   Clear